Date String (YYYY-MM-DD hh:mm:ss) UTC,Instrument flags,absolute air pressure of the measurement (hPa),sample flow rate (lpm),inlet stack bypass flow (lpm),air temperature of the measurement (°C),ambient temperature measured by the external sensor (°C),aerosol sample conditioner tube jacket temperature (°C),OPC LED temperature (°C),internal box temperature (°C),relative humidity of the measurement (%),span deviation,mass concentration of particles derived from Lorenz-Mie calculation of OPC scattering (μg/m³),mass concentration of particles derived from Lorenz-Mie calculation of OPC scattering (μg/m³),mass concentration of particles derived from Lorenz-Mie calculation of OPC scattering (μg/m³)
DateTimeUTC,F1_M11,P_M11,Q1_M11,Q2_M11,T1_M11,T2_M11,T3_M11,T4_M11,T5_M11,U1_M11,ZSPAN_M11,X0_M11,X2_M11,X1_M11
2023-07-08 10:00:00,SystemResetWarning,0833.6,5.00,000.00,029.8,028.4,000.0,038.3,031.3,33.1,-000.4,0011.51,0007.00,0006.21
2023-07-08 10:01:00,SystemResetWarning,0833.6,4.99,000.00,029.8,028.5,000.0,038.3,031.3,32.8,-000.2,0011.76,0006.99,0006.21
2023-07-08 10:02:00,SystemResetWarning,0833.7,5.00,000.00,029.8,028.5,000.0,038.3,031.3,32.6,-000.0,0011.94,0007.03,0006.21
2023-07-08 10:03:00,SystemResetWarning,0833.7,5.00,000.00,029.8,028.5,000.0,038.3,031.4,32.4,0000.0,0011.85,0007.06,0006.22
2023-07-08 10:04:00,SystemResetWarning,0833.6,5.00,000.00,029.8,028.6,000.0,038.4,031.4,32.3,0000.4,0011.83,0007.08,0006.23
2023-07-08 10:05:00,SystemResetWarning,0833.7,5.00,000.00,029.9,028.6,000.0,038.4,031.4,32.1,0000.4,0012.04,0007.08,0006.23
2023-07-08 10:06:00,SystemResetWarning,0833.7,5.00,000.00,029.9,028.6,000.0,038.4,031.4,32.0,-000.3,0012.43,0007.06,0006.22
2023-07-08 10:07:00,SystemResetWarning,0833.6,5.00,000.00,029.9,028.7,000.0,038.4,031.4,32.0,-000.3,0012.94,0007.11,0006.21
2023-07-08 10:08:00,SystemResetWarning,0833.6,5.01,000.00,029.9,028.7,000.0,038.4,031.4,32.2,-000.3,0013.25,0007.16,0006.21
2023-07-08 10:09:00,SystemResetWarning,0833.6,5.01,000.00,029.9,028.7,000.0,038.4,031.5,32.1,-000.3,0013.25,0007.20,0006.23
2023-07-08 10:10:00,SystemResetWarning,0833.5,5.00,000.00,030.0,028.7,000.0,038.4,031.5,32.0,-000.5,0013.22,0007.22,0006.25
2023-07-08 10:11:00,SystemResetWarning,0833.4,5.00,000.00,030.0,028.7,000.0,038.5,031.5,31.9,-000.5,0013.65,0007.23,0006.26
2023-07-08 10:12:00,SystemResetWarning,0833.4,4.99,000.00,030.0,028.8,000.0,038.5,031.5,31.8,-001.0,0013.31,0007.21,0006.27
2023-07-08 10:13:00,SystemResetWarning,0833.4,5.00,000.00,030.0,028.8,000.0,038.5,031.5,31.8,-001.2,0012.88,0007.14,0006.27
2023-07-08 10:14:00,SystemResetWarning,0833.4,5.00,000.00,030.0,028.6,000.0,038.5,031.6,31.7,-001.3,0012.71,0007.11,0006.27
2023-07-08 10:15:00,SystemResetWarning,0833.3,5.00,000.00,030.0,026.9,000.0,038.4,031.4,31.7,-001.6,0013.05,0007.10,0006.27
2023-07-08 10:16:00,SystemResetWarning,0833.2,5.00,000.00,029.9,025.5,000.0,038.3,031.2,31.7,-001.6,0013.31,0007.12,0006.27
2023-07-08 10:17:00,SystemResetWarning,0833.2,5.01,000.00,029.8,025.3,000.0,038.2,030.8,31.8,-001.4,0013.16,0007.16,0006.28
2023-07-08 10:18:00,SystemResetWarning,0833.2,5.01,000.00,029.7,025.6,000.0,038.2,030.7,32.1,-001.0,0012.72,0007.14,0006.29
2023-07-08 10:19:00,SystemResetWarning,0833.3,4.99,000.00,029.6,026.0,000.0,038.2,030.8,32.0,-001.2,0012.38,0007.09,0006.30
2023-07-08 10:20:00,SystemResetWarning,0833.3,5.00,000.00,029.6,026.4,000.0,038.2,030.8,32.1,-001.1,0012.38,0007.05,0006.28
2023-07-08 10:21:00,SystemResetWarning,0833.2,5.01,000.00,029.5,026.8,000.0,038.2,030.9,32.1,-000.6,0012.65,0007.02,0006.26
2023-07-08 10:22:00,SystemResetWarning,0833.3,4.99,000.00,029.5,027.1,000.0,038.2,030.9,32.1,-000.5,0012.53,0007.04,0006.26
2023-07-08 10:23:00,SystemResetWarning,0833.3,4.99,000.00,029.5,027.3,000.0,038.2,031.0,31.9,-000.1,0012.55,0007.06,0006.26
2023-07-08 10:24:00,SystemResetWarning,0833.3,5.01,000.00,029.6,027.6,000.0,038.2,031.0,31.8,0000.0,0012.76,0007.11,0006.27
2023-07-08 10:25:00,SystemResetWarning,0833.3,5.01,000.00,029.6,027.7,000.0,038.2,031.0,31.6,-000.2,0012.82,0007.13,0006.27
2023-07-08 10:26:00,SystemResetWarning,0833.3,4.98,000.00,029.6,027.9,000.0,038.2,031.1,31.5,-000.1,0012.66,0007.10,0006.26
2023-07-08 10:27:00,SystemResetWarning,0833.3,5.00,000.00,029.6,028.0,000.0,038.2,031.1,31.5,0000.2,0012.06,0007.07,0006.26
2023-07-08 10:28:00,SystemResetWarning,0833.2,5.00,000.00,029.6,028.1,000.0,038.2,031.1,31.6,0000.1,0012.29,0007.02,0006.24
2023-07-08 10:29:00,SystemResetWarning,0833.3,5.00,000.00,029.6,028.2,000.0,038.2,031.2,31.8,0000.3,0012.10,0007.00,0006.22
2023-07-08 10:30:00,SystemResetWarning,0833.2,4.99,000.00,029.6,028.3,000.0,038.2,031.2,31.4,-000.2,0012.08,0006.95,0006.21
2023-07-08 10:31:00,SystemResetWarning,0833.2,4.99,000.00,029.7,028.3,000.0,038.2,031.2,30.6,-000.0,0012.02,0006.92,0006.20
2023-07-08 10:32:00,SystemResetWarning,0833.2,5.01,000.00,029.7,028.4,000.0,038.2,031.3,30.3,-000.3,0011.85,0006.87,0006.19
2023-07-08 10:33:00,SystemResetWarning,0833.2,5.01,000.00,029.7,028.5,000.0,038.3,031.3,30.1,-000.5,0011.13,0006.82,0006.19
2023-07-08 10:34:00,SystemResetWarning,0833.2,5.01,000.00,029.7,028.5,000.0,038.3,031.3,30.2,-000.5,0010.86,0006.77,0006.19
2023-07-08 10:35:00,SystemResetWarning,0833.2,5.00,000.00,029.8,028.5,000.0,038.3,031.3,30.5,-000.6,0011.43,0006.77,0006.19
2023-07-08 10:36:00,SystemResetWarning,0833.2,5.00,000.00,029.8,028.6,000.0,038.3,031.4,30.6,-000.6,0012.11,0006.73,0006.17
2023-07-08 10:37:00,SystemResetWarning,0833.2,4.99,000.00,029.8,028.6,000.0,038.3,031.4,30.1,-000.4,0012.93,0006.78,0006.20
2023-07-08 10:38:00,SystemResetWarning,0833.2,4.99,000.00,029.8,028.6,000.0,038.3,031.4,30.1,-000.4,0013.03,0006.79,0006.22
2023-07-08 10:39:00,SystemResetWarning,0833.2,5.01,000.00,029.9,028.7,000.0,038.3,031.4,29.9,-000.7,0012.68,0006.80,0006.23
2023-07-08 10:40:00,SystemResetWarning,0833.2,5.00,000.00,029.9,028.7,000.0,038.4,031.5,30.1,-000.9,0012.65,0006.81,0006.24
2023-07-08 10:41:00,SystemResetWarning,0833.2,5.01,000.00,029.9,028.7,000.0,038.4,031.5,30.8,-001.0,0012.60,0006.82,0006.24
2023-07-08 10:42:00,SystemResetWarning,0833.2,4.99,000.00,029.9,028.7,000.0,038.4,031.5,31.5,-001.1,0012.77,0006.88,0006.28
2023-07-08 10:43:00,SystemResetWarning,0833.3,4.99,000.00,029.9,028.8,000.0,038.4,031.5,31.3,-001.0,0012.89,0006.95,0006.33
2023-07-08 10:44:00,SystemResetWarning,0833.3,5.00,000.00,030.0,028.8,000.0,038.4,031.5,31.2,-001.1,0013.24,0007.02,0006.37
2023-07-08 10:45:00,SystemResetWarning,0833.2,5.02,000.00,030.0,028.8,000.0,038.5,031.5,31.2,-001.2,0013.92,0007.07,0006.39
2023-07-08 10:46:00,SystemResetWarning,0833.3,4.98,000.00,030.0,028.8,000.0,038.5,031.5,30.9,-001.3,0013.26,0007.10,0006.40
2023-07-08 10:47:00,SystemResetWarning,0833.3,5.00,000.00,030.0,028.8,000.0,038.5,031.5,30.7,-001.3,0012.62,0007.14,0006.40
2023-07-08 10:48:00,SystemResetWarning,0833.3,5.02,000.00,030.0,028.8,000.0,038.5,031.6,30.7,-001.5,0011.94,0007.14,0006.39
2023-07-08 10:49:00,SystemResetWarning,0833.3,5.00,000.00,030.0,028.8,000.0,038.5,031.6,30.7,-001.4,0012.43,0007.14,0006.39
2023-07-08 10:50:00,SystemResetWarning,0833.3,4.98,000.00,030.0,027.3,000.0,038.4,031.5,30.7,-001.2,0012.74,0007.11,0006.38
2023-07-08 10:51:00,SystemResetWarning,0833.2,5.01,000.00,030.0,025.7,000.0,038.3,031.3,30.6,-001.3,0012.90,0007.14,0006.39
2023-07-08 10:52:00,SystemResetWarning,0833.3,5.01,000.00,029.9,025.3,000.0,038.2,031.0,30.8,-001.2,0013.06,0007.20,0006.41
2023-07-08 10:53:00,SystemResetWarning,0833.2,5.01,000.00,029.7,025.5,000.0,038.2,030.7,31.0,-001.2,0013.04,0007.20,0006.40
2023-07-08 10:54:00,SystemResetWarning,0833.3,4.99,000.00,029.6,025.9,000.0,038.3,030.7,31.3,-001.2,0013.06,0007.19,0006.38
2023-07-08 10:55:00,SystemResetWarning,0833.3,5.00,000.00,029.6,026.3,000.0,038.3,030.8,31.4,-001.3,0012.84,0007.11,0006.33
2023-07-08 10:56:00,SystemResetWarning,0833.4,5.00,000.00,029.6,026.7,000.0,038.2,030.9,31.4,-001.4,0012.62,0007.04,0006.28
2023-07-08 10:57:00,SystemResetWarning,0833.4,5.01,000.00,029.6,027.0,000.0,038.2,030.9,31.6,-001.3,0012.35,0006.97,0006.25
2023-07-08 10:58:00,SystemResetWarning,0833.4,4.99,000.00,029.5,027.3,000.0,038.2,031.0,31.5,-001.3,0012.23,0006.94,0006.25
2023-07-08 10:59:00,SystemResetWarning,0833.4,5.00,000.00,029.6,027.5,000.0,038.2,031.0,31.5,-001.0,0012.18,0006.91,0006.23
